When you browse on this site, cookies collect data to enhance your experience and personalize the content and advertising you see.
Visit our Privacy Policy to learn more. By continuing to use the site, you agree to this use of cookies and data.
  • In United Kingdom
  • List of Countries
  • For 7 days
  • Water Temperature
  • Satellite Maps
  • Weather Map
  • Weather Widgets
  • user-avatar
    Login

    Hourly Weather Bridgetown

    Today, 21 March, Thursday

    Time Temperature Precipitation Wind Pressure Humidity
    00:00 +28°C° 0 mm 6 mps 760 mmHg 70%
    01:00 +28°C° 0 mm 6 mps 760 mmHg 70%
    02:00 +28°C° 0 mm 6 mps 760 mmHg 70%
    03:00 +28°C° 0 mm 6 mps 760 mmHg 69%
    04:00 +28°C° 0 mm 6 mps 759 mmHg 67%
    05:00 +28°C° 0 mm 6 mps 759 mmHg 66%
    06:00 +28°C° 0 mm 5 mps 760 mmHg 65%
    07:00 +28°C° 0 mm 5 mps 760 mmHg 64%
    08:00 +28°C° 0 mm 5 mps 760 mmHg 63%
    09:00 +29°C° 0 mm 5 mps 761 mmHg 64%
    10:00 +29°C° 0 mm 5 mps 761 mmHg 65%
    11:00 +29°C° 0 mm 4 mps 761 mmHg 65%
    12:00 +29°C° 0 mm 4 mps 761 mmHg 66%
    13:00 +29°C° 0 mm 4 mps 760 mmHg 67%
    14:00 +29°C° 0 mm 4 mps 759 mmHg 67%
    15:00 +29°C° 0.1 mm 4 mps 759 mmHg 69%
    16:00 +29°C° 0.1 mm 4 mps 759 mmHg 71%
    17:00 +29°C° 0.1 mm 4 mps 758 mmHg 72%
    18:00 +29°C° 0.3 mm 5 mps 759 mmHg 74%
    19:00 +29°C° 0.3 mm 6 mps 759 mmHg 77%
    20:00 +28°C° 0.3 mm 7 mps 759 mmHg 79%
    21:00 +28°C° 0.3 mm 7 mps 760 mmHg 79%
    22:00 +28°C° 0.3 mm 8 mps 760 mmHg 79%
    23:00 +28°C° 0.3 mm 8 mps 760 mmHg 79%

    Tomorrow, 22 March, Friday

    Time Temperature Precipitation Wind Pressure Humidity
    00:00 +28°C° 0.1 mm 8 mps 760 mmHg 79%
    01:00 +28°C° 0.1 mm 8 mps 760 mmHg 79%
    02:00 +28°C° 0.1 mm 8 mps 759 mmHg 79%
    03:00 +28°C° 0 mm 8 mps 759 mmHg 79%
    04:00 +28°C° 0 mm 8 mps 759 mmHg 80%
    05:00 +28°C° 0 mm 8 mps 759 mmHg 80%
    06:00 +28°C° 0 mm 8 mps 760 mmHg 79%
    07:00 +28°C° 0 mm 8 mps 760 mmHg 79%
    08:00 +28°C° 0 mm 8 mps 761 mmHg 79%
    09:00 +28°C° 0.4 mm 8 mps 761 mmHg 79%
    10:00 +29°C° 0.4 mm 9 mps 761 mmHg 78%
    11:00 +29°C° 0.4 mm 9 mps 761 mmHg 78%
    12:00 +28°C° 0.7 mm 8 mps 761 mmHg 78%
    13:00 +28°C° 0.7 mm 8 mps 760 mmHg 78%
    14:00 +28°C° 0.7 mm 8 mps 760 mmHg 78%
    15:00 +28°C° 0.5 mm 8 mps 759 mmHg 79%
    16:00 +28°C° 0.5 mm 8 mps 759 mmHg 79%
    17:00 +28°C° 0.5 mm 8 mps 759 mmHg 79%
    18:00 +28°C° 0.4 mm 8 mps 759 mmHg 79%
    19:00 +28°C° 0.4 mm 8 mps 760 mmHg 80%
    20:00 +28°C° 0.4 mm 9 mps 760 mmHg 80%
    21:00 +28°C° 0.5 mm 9 mps 760 mmHg 80%
    22:00 +28°C° 0.5 mm 9 mps 761 mmHg 79%
    23:00 +29°C° 0.5 mm 10 mps 761 mmHg 79%

    Day after tomorrow, 23 March, Saturday

    Time Temperature Precipitation Wind Pressure Humidity
    00:00 +29°C° 0.1 mm 10 mps 760 mmHg 79%
    01:00 +28°C° 0.1 mm 10 mps 760 mmHg 79%
    02:00 +28°C° 0.1 mm 10 mps 759 mmHg 80%
    03:00 +28°C° 0 mm 10 mps 759 mmHg 79%
    04:00 +28°C° 0 mm 10 mps 760 mmHg 79%
    05:00 +28°C° 0 mm 10 mps 760 mmHg 79%
    06:00 +29°C° 0 mm 10 mps 760 mmHg 78%
    07:00 +29°C° 0 mm 10 mps 761 mmHg 77%
    08:00 +29°C° 0 mm 11 mps 761 mmHg 77%
    09:00 +29°C° 0 mm 10 mps 762 mmHg 76%
    10:00 +29°C° 0 mm 10 mps 762 mmHg 75%
    11:00 +29°C° 0 mm 10 mps 762 mmHg 75%
    12:00 +29°C° 0 mm 9 mps 761 mmHg 74%
    13:00 +29°C° 0 mm 9 mps 761 mmHg 74%
    14:00 +29°C° 0 mm 8 mps 760 mmHg 74%
    15:00 +29°C° 0 mm 8 mps 760 mmHg 74%
    16:00 +29°C° 0 mm 8 mps 760 mmHg 74%
    17:00 +29°C° 0 mm 7 mps 760 mmHg 74%
    18:00 +29°C° 0 mm 7 mps 760 mmHg 74%
    19:00 +29°C° 0 mm 7 mps 760 mmHg 74%
    20:00 +29°C° 0 mm 7 mps 761 mmHg 75%
    21:00 +28°C° 0 mm 7 mps 761 mmHg 75%
    22:00 +28°C° 0 mm 7 mps 761 mmHg 76%
    23:00 +28°C° 0 mm 7 mps 761 mmHg 77%

    24 March, Sunday

    Time Temperature Precipitation Wind Pressure Humidity
    00:00 +28°C° 0.2 mm 7 mps 760 mmHg 77%
    01:00 +28°C° 0.2 mm 8 mps 760 mmHg 78%
    02:00 +28°C° 0.2 mm 8 mps 759 mmHg 79%
    03:00 +28°C° 0.5 mm 8 mps 760 mmHg 79%
    04:00 +28°C° 0.5 mm 8 mps 760 mmHg 78%
    05:00 +28°C° 0.5 mm 8 mps 760 mmHg 78%
    06:00 +29°C° 0.4 mm 8 mps 761 mmHg 77%
    07:00 +29°C° 0.4 mm 9 mps 761 mmHg 77%
    08:00 +29°C° 0.4 mm 9 mps 762 mmHg 76%
    09:00 +29°C° 0.1 mm 9 mps 762 mmHg 75%
    10:00 +29°C° 0.1 mm 8 mps 762 mmHg 75%
    11:00 +29°C° 0.1 mm 8 mps 762 mmHg 74%
    12:00 +29°C° 0 mm 8 mps 761 mmHg 74%
    13:00 +29°C° 0 mm 8 mps 761 mmHg 73%
    14:00 +29°C° 0 mm 8 mps 760 mmHg 72%
    15:00 +29°C° 0 mm 8 mps 760 mmHg 73%
    16:00 +29°C° 0 mm 8 mps 760 mmHg 73%
    17:00 +29°C° 0 mm 7 mps 759 mmHg 74%
    18:00 +29°C° 0 mm 7 mps 760 mmHg 74%
    19:00 +29°C° 0 mm 7 mps 760 mmHg 75%
    20:00 +29°C° 0 mm 7 mps 760 mmHg 75%
    21:00 +29°C° 0.1 mm 8 mps 760 mmHg 75%
    22:00 +29°C° 0.1 mm 8 mps 760 mmHg 75%
    23:00 +29°C° 0.1 mm 8 mps 760 mmHg 76%

    25 March, Monday

    Time Temperature Precipitation Wind Pressure Humidity
    00:00 +28°C° 0 mm 8 mps 760 mmHg 76%
    01:00 +28°C° 0 mm 8 mps 759 mmHg 77%
    02:00 +28°C° 0 mm 8 mps 759 mmHg 77%
    03:00 +28°C° 0 mm 8 mps 759 mmHg 77%
    04:00 +28°C° 0 mm 8 mps 759 mmHg 76%
    05:00 +28°C° 0 mm 8 mps 759 mmHg 75%
    06:00 +28°C° 0.2 mm 8 mps 760 mmHg 75%
    07:00 +28°C° 0.2 mm 8 mps 760 mmHg 75%
    08:00 +29°C° 0.2 mm 8 mps 761 mmHg 75%
    09:00 +29°C° 0.3 mm 8 mps 761 mmHg 75%
    10:00 +29°C° 0.3 mm 8 mps 761 mmHg 74%
    11:00 +29°C° 0.3 mm 8 mps 761 mmHg 74%
    12:00 +29°C° 0 mm 8 mps 760 mmHg 73%
    13:00 +29°C° 0 mm 7 mps 760 mmHg 72%
    14:00 +29°C° 0 mm 7 mps 759 mmHg 71%
    15:00 +29°C° 0.1 mm 7 mps 759 mmHg 71%
    16:00 +29°C° 0.1 mm 7 mps 759 mmHg 71%
    17:00 +29°C° 0.1 mm 7 mps 759 mmHg 72%
    18:00 +29°C° 0 mm 7 mps 759 mmHg 72%
    19:00 +29°C° 0 mm 7 mps 759 mmHg 73%
    20:00 +29°C° 0 mm 7 mps 759 mmHg 74%
    21:00 +29°C° 0.1 mm 7 mps 759 mmHg 75%
    22:00 +28°C° 0.1 mm 7 mps 760 mmHg 76%
    23:00 +28°C° 0.1 mm 8 mps 760 mmHg 77%

    26 March, Tuesday

    Time Temperature Precipitation Wind Pressure Humidity
    00:00 +28°C° 0.1 mm 8 mps 759 mmHg 77%
    01:00 +28°C° 0.1 mm 8 mps 759 mmHg 77%
    02:00 +28°C° 0.1 mm 8 mps 759 mmHg 77%
    03:00 +28°C° 0.1 mm 9 mps 759 mmHg 77%
    04:00 +28°C° 0.1 mm 9 mps 759 mmHg 77%
    05:00 +28°C° 0.1 mm 9 mps 759 mmHg 76%
    06:00 +28°C° 0.1 mm 9 mps 760 mmHg 76%
    07:00 +28°C° 0.1 mm 9 mps 760 mmHg 75%
    08:00 +29°C° 0.1 mm 8 mps 761 mmHg 74%
    09:00 +29°C° 0.1 mm 8 mps 761 mmHg 74%
    10:00 +29°C° 0.1 mm 8 mps 761 mmHg 73%
    11:00 +29°C° 0.1 mm 8 mps 761 mmHg 73%
    12:00 +29°C° 0.1 mm 8 mps 760 mmHg 73%
    13:00 +29°C° 0.1 mm 7 mps 760 mmHg 73%
    14:00 +29°C° 0.1 mm 7 mps 759 mmHg 73%
    15:00 +29°C° 0 mm 8 mps 759 mmHg 73%
    16:00 +29°C° 0 mm 8 mps 759 mmHg 74%
    17:00 +29°C° 0 mm 8 mps 758 mmHg 74%
    18:00 +29°C° 0 mm 8 mps 759 mmHg 75%
    19:00 +29°C° 0 mm 8 mps 759 mmHg 75%
    20:00 +29°C° 0 mm 8 mps 759 mmHg 76%
    21:00 +29°C° 0 mm 8 mps 760 mmHg 76%
    22:00 +29°C° 0 mm 8 mps 760 mmHg 76%
    23:00 +28°C° 0 mm 8 mps 760 mmHg 76%
    Show more